This is the latest recevied weather packets stored in our database for station/object N6GPM. If no packets are shown the sender has not sent any weather packets the latest 10 day(s).
| Time | Temp. | Humidity | Pressure | Rain* | Wind** | Luminosity | Snow |
|---|---|---|---|---|---|---|---|
| 1777749449 | 22.22° C | 62% | 1017 hPa | 0 mm | - | 718 W/m² | - |
| 1777745812 | 20.56° C | 68% | 1017.7 hPa | 0 mm | - | 866 W/m² | - |
| 1777743390 | 20° C | 72% | 1018 hPa | 0 mm | - | 838 W/m² | - |
| 1777742482 | 18.89° C | 76% | 1017.8 hPa | 0 mm | - | 828 W/m² | - |
| 1777740965 | 15.56° C | 92% | 1017.8 hPa | 0 mm | - | 689 W/m² | - |
| 1777740358 | 15° C | 94% | 1018.2 hPa | 0 mm | - | 698 W/m² | - |
| 1777740055 | 14.44° C | 95% | 1018.1 hPa | 0 mm | - | 665 W/m² | - |
| 1777739751 | 14.44° C | 95% | 1018 hPa | 0 mm | - | 582 W/m² | - |
| 1777739448 | 13.89° C | 95% | 1018.1 hPa | 0 mm | - | 468 W/m² | - |
| 1777739144 | 13.89° C | 95% | 1018.3 hPa | 0 mm | - | 523 W/m² | - |
| 1777738842 | 13.33° C | 95% | 1018.2 hPa | 0 mm | - | 377 W/m² | - |
| 1777738538 | 13.89° C | 95% | 1018.4 hPa | 0 mm | - | 265 W/m² | - |
| 1777738236 | 13.33° C | 95% | 1018.3 hPa | 0 mm | - | 213 W/m² | - |
| 1777737934 | 13.89° C | 95% | 1018.3 hPa | 0 mm | - | 205 W/m² | - |
| 1777737331 | 13.33° C | 95% | 1018.6 hPa | 0 mm | - | 205 W/m² | - |
| 1777737027 | 13.33° C | 95% | 1018.5 hPa | 0 mm | - | 183 W/m² | - |
| 1777736722 | 13.33° C | 95% | 1018.5 hPa | 0 mm | - | 201 W/m² | - |
| 1777736084 | 12.78° C | 95% | 1018.4 hPa | 0 mm | - | 162 W/m² | - |
| 1777735781 | 12.78° C | 95% | 1018.4 hPa | 0 mm | - | 132 W/m² | - |
| 1777735478 | 12.78° C | 95% | 1018.2 hPa | 0 mm | - | 130 W/m² | - |
| 1777735176 | 12.78° C | 95% | 1018.3 hPa | 0 mm | - | 131 W/m² | - |
| 1777734872 | 12.78° C | 95% | 1018.5 hPa | 0 mm | - | 116 W/m² | - |
| 1777734570 | 12.78° C | 95% | 1018.4 hPa | 0 mm | - | 127 W/m² | - |
| 1777734267 | 12.78° C | 95% | 1018.4 hPa | 0 mm | - | 116 W/m² | - |
| 1777733963 | 12.22° C | 95% | 1018.4 hPa | 0 mm | - | 101 W/m² | - |
* Rain latest hour (hover to see other rain measurements)
** Current wind speed in m/s (hover to see current wind gust speed)